FENGYUN 1C DEB, 30922

Orbit data source: Space-Track

FENGYUN 1C DEB, 30922 is space debris in SSO originally from a launch on Mon, 10 May 1999 UTC launched from the Taiyaun Space Center, China (TSC). Fengyun 1C debris stems from the Chinese weather satellite Fengyun-1C, which was intentionally destroyed by a Chinese anti-satellite missile in 2007. This event dramatically increased the amount of space debris, with thousands of trackable fragments posing hazards to satellites and human spaceflight. The Fengyun 1C debris cloud has become a focal point in discussions about space sustainability and the need for international regulations to prevent the creation of new debris.

Loading next visibility...
Identifier
30922, 1999-025AZL
Orbit
SSO
Country
Flag of CNCN / PRC
Related business
Manufacturer
Unknown
Mission
Spacecraft
Bus & Motor
Unknown
Mass
Unknown
Launch date (UTC)
1999-05-10 (27 years ago)
Launch vehicle
Unknown
Launch site
Taiyaun Space Center, China (TSC)
Object type
Payload
Rocket body
Debris
Shape & HBR
Unknown shape, 0.1 m
Radar Cross Section
Medium (>0.1 m² and <1 m²)

Expand to show TLE details & history
Last TLE update: 2 days ago

TLE from 2 days ago
0 FENGYUN 1C DEB
1 30922U 99025AZL 26255.27320781  .00000697  00000-0  36026-3 0  9993
2 30922  98.6303 268.5407 0013551 349.0962  72.0760 14.18074918  4400
Epoch: 2026-09-12T06:33Z
TLE epoch observation values (Epoch: 2026-09-12T06:33:25.154Z)
Latitude
60.25176°
Longitude
163.58371°
Altitude
839.101 km
Speed
7.441 km/s
True Right ascension
16h 52m 53s
True Declination
60° 06' 18"
Sunlit
Object was in daylight at epoch
Visualization orbit readout
Latitude
Unknown
Longitude
Unknown
Altitude
Unknown
Speed
Unknown
Apparent Right ascension
Unknown
Apparent Declination
Unknown
Sunlit
N/A
Visualization observer readout
Local Sidereal Time
19:49:48
Azimuth
Unknown
Elevation
Unknown
Doppler factor
Unknown
Orbital elements
Apogee altitude
838.794 km
Perigee altitude
819.262 km
Semi-major axis
7,207.165 km
Eccentricity
0.00136
Inclination
98.6303°
RAAN
268.5407°
Arg. of periapsis
349.0962°
True anomaly
72.22382°
Mean anomaly
72.076°
Eccentric anomaly
72.1499°
Mean motion
3.54729 °/min
Orbital period
101.49 mins
BSTAR
0.00036026
Loading maneuver chart data...
Computing Atmospheric mass density...
Loading historical data...
Loading historical data...
Loading historical data...
Loading historical data...
Loading historical data...
Loading historical data...
Loading historical data...

Documentation

Showing up to 5 results
|